SCP
1 1 2 2 2 2 2 3 4 4 4 3 3 3 3 2 2 2 2 1 1 1 0 0 0 0 0 0 0 0 0 0 0 0 0 0 0 0 0 0 0 0 0
1 1 2 2 3 2 2 3 3 3 3 3 3 3 3 2 2 1 1 1 1 0 0 0 0 0 0 0 0 0 0 0 0 0 0 0 0 0 0 0 0 0 0
0 1 2 2 2 2 2 3 3 3 3 4 4 3 3 2 2 1 1 1 0 0 0 0 0 0 0 0 0 0 0 0 0 0 0 0 0 0 0 0 0 0 0
0 1 1 2 2 2 3 3 4 4 4 5 5 4 3 2 2 2 1 1 1 0 0 0 0 0 0 0 0 0 0 0 0 0 0 0 0 0 0 0 0 0 0
0 0 1 1 2 2 3 4 4 4 5 5 5 5 4 3 2 2 1 1 1 0 1 1 0 0 0 0 0 0 0 0 0 0 0 0 0 0 0 0 0 0 0
0 0 0 1 1 2 3 4 5 4 4 5 5 5 5 4 3 2 1 1 1 1 1 1 1 1 1 1 1 1 1 1 0 0 0 0 0 0 0 0 0 0 0
0 0 0 0 1 2 4 6 6 4 4 4 5 5 5 5 3 2 1 1 1 1 1 1 1 1 1 1 1 1 1 1 0 0 0 0 0 0 0 0 0 0 0
0 0 0 0 1 2 5 8 6 4 4 4 4 5 5 4 3 2 1 1 1 1 1 1 1 1 1 0 0 0 0 0 0 0 0 0 0 0 0 0 0 0 0
0 0 0 0 1 2 4 5 5 3 3 3 3 3 3 2 2 1 0 0 0 1 1 0 0 0 0 0 0 0 0 0 0 0 0 0 0 0 0 0 0 0 0
0 0 0 0 1 1 2 2 3 2 2 2 2 2 1 1 1 0 0 0 0 0 0 0 0 0 0 0 0 0 0 0 0 0 0 0 0 0 0 0 0 0 0
0 0 0 0 0 1 1 1 1 1 1 1 1 1 1 0 0 0 0 0 0 0 0 0 0 0 0 0 0 0 0 0 0 0 0 0 0 0 0 0 0 0 0
0 0 0 0 0 0 0 0 0 0 0 0 0 0 0 0 0 0 0 0 0 0 0 0 0 0 0 0 0 0 0 0 0 0 0 0 0 0 0 0 0 0 0
0 0 0 0 0 0 0 0 0 0 0 0 0 0 0 0 0 0 0 0 0 0 0 0 0 0 0 0 0 0 0 0 0 0 0 0 0 0 0 0 0 0 0
0 0 0 0 0 0 0 0 0 0 0 0 0 0 0 0 0 0 0 0 0 0 0 0 0 0 0 0 0 0 0 0 0 0 0 0 0 0 0 0 0 0 0
0 0 0 0 0 0 0 0 0 0 0 0 0 0 0 0 0 0 0 0 0 0 0 0 0 0 0 0 0 0 0 0 0 0 0 0 0 0 0 0 0 0 0
0 0 0 0 0 0 0 0 0 0 0 0 0 0 0 0 0 0 0 0 0 0 0 0 0 0 0 0 0 0 0 0 0 0 0 0 0 0 0 0 0 0 0
0 0 0 0 0 0 0 0 0 0 0 0 0 0 0 0 0 0 0 0 0 0 0 0 0 0 0 0 0 0 0 0 0 0 0 0 0 0 0 0 0 0 0
0 0 0 0 0 0 0 0 0 0 0 0 0 0 0 0 0 0 0 0 0 0 0 0 0 0 0 0 0 0 0 0 0 0 0 0 0 0 0 0 0 0 0
0 0 0 0 0 0 0 0 0 0 0 0 0 0 0 0 0 0 0 0 0 0 0 0 0 0 0 0 0 0 0 0 0 0 0 0 0 0 0 0 0 0 0
0 0 0 0 0 0 0 0 0 0 0 0 0 0 0 0 0 0 0 0 0 0 0 0 0 0 0 0 0 0 0 0 0 0 0 0 0 0 0 0 0 0 0
0 0 0 0 0 0 0 0 0 0 0 0 0 0 0 0 0 0 0 0 0 0 0 0 0 0 0 0 0 0 0 0 0 0 0 0 0 0 0 0 0 0 0
0 0 0 0 0 0 0 0 0 0 0 0 0 0 0 0 0 0 0 0 0 0 0 0 0 0 0 0 0 0 0 0 0 0 0 0 0 0 0 0 0 0 0
0 0 0 0 0 0 0 0 0 0 0 0 0 0 0 0 0 0 0 0 0 0 0 0 0 0 0 0 0 0 0 0 0 0 0 0 0 0 0 0 0 0 0
0 0 0 0 0 0 0 0 0 0 0 0 0 0 0 0 0 0 0 0 0 0 0 0 0 0 0 0 0 0 0 0 0 0 0 0 0 0 0 0 0 0 0
0 0 0 0 0 0 0 0 0 0 0 0 0 0 0 0 0 0 0 0 0 0 0 0 0 0 0 0 0 0 0 0 0 0 0 0 0 0 0 0 0 0 0
0 0 0 0 0 0 0 0 0 0 0 0 0 0 0 0 0 0 0 0 0 0 0 0 0 0 0 0 0 0 0 0 0 0 0 0 0 0 0 0 0 0 0
Wind_Speed
8 6 6 6 6 7 8 9 9 9 7 5 5 5 5 4 4 4 5 5 5 5 5 4 3 3 3 3 3 2 2 2 1 0 2 3 2 2 2 1 0 0 1
6 6 6 5 7 8 8 9 9 9 8 6 5 4 4 3 3 3 3 4 5 4 4 4 3 3 3 3 2 2 2 2 2 2 1 2 3 2 2 2 1 2 2
10 8 8 8 7 8 10 9 10 9 9 7 4 3 3 2 2 3 3 3 4 4 4 4 3 3 3 2 2 2 3 2 2 2 3 2 3 1 2 3 3 3 3
9 8 8 8 8 9 7 8 9 8 8 8 8 8 6 5 6 4 4 3 4 4 4 4 3 3 2 2 2 2 2 3 2 2 3 3 3 2 1 1 2 4 4
10 9 9 9 8 7 7 7 7 7 7 7 8 8 6 5 3 4 5 3 3 3 3 4 3 3 2 2 2 2 2 2 3 2 2 2 2 3 3 2 1 1 3
9 8 7 6 5 5 5 5 6 6 6 7 7 8 8 7 6 6 6 4 2 2 3 3 3 3 2 2 1 1 2 2 2 2 2 2 2 2 3 3 2 2 1
7 6 6 6 6 6 6 6 7 6 5 6 6 7 8 8 8 7 6 5 3 2 2 2 3 2 2 2 1 1 1 1 1 2 2 2 2 2 2 2 2 2 2
5 6 6 7 7 7 6 6 6 5 5 5 5 5 5 5 4 5 5 5 4 3 3 3 3 2 2 2 1 1 0 0 0 1 1 0 1 1 1 2 2 2 2
3 4 4 5 6 6 6 6 7 5 5 5 5 4 5 5 5 5 5 4 4 4 4 4 3 3 3 2 2 1 0 1 1 0 0 0 0 0 0 0 1 2 3
1 2 3 4 4 5 4 4 5 5 5 5 5 4 5 5 6 6 6 6 5 5 5 4 4 3 3 2 2 1 1 1 1 1 1 1 0 1 1 0 0 1 2
3 3 3 3 3 4 4 5 5 5 5 5 5 5 5 5 5 5 6 6 5 5 5 4 4 3 2 2 2 1 1 1 1 1 1 1 1 1 1 1 0 0 1
2 2 2 2 2 3 4 5 5 5 5 5 6 6 5 5 5 5 5 5 5 5 4 4 4 3 3 2 2 2 2 2 2 1 1 1 1 1 1 1 0 0 0
2 1 1 2 3 4 4 5 5 5 5 6 6 6 6 6 6 6 6 5 5 5 4 4 4 3 3 2 2 2 2 2 2 2 2 1 2 1 1 1 1 0 1
3 3 3 4 4 4 4 5 5 5 6 6 6 7 6 6 6 6 6 5 5 5 4 4 4 3 3 2 2 2 2 2 2 2 2 2 2 2 1 1 1 1 2
4 4 4 4 4 4 4 5 5 5 6 7 7 6 6 6 6 6 6 5 5 5 5 4 4 3 3 2 3 3 3 3 3 2 2 2 2 3 2 1 1 2 2
5 5 5 5 5 5 6 6 6 6 7 7 7 6 6 6 6 6 6 6 5 5 5 4 4 3 2 4 6 5 3 3 3 2 2 1 2 3 4 4 4 4 4
6 6 5 5 6 6 6 7 7 6 7 7 7 7 7 7 7 7 6 6 5 5 4 4 4 4 4 6 6 7 4 3 3 3 2 1 2 3 3 4 6 5 4
6 6 5 5 5 5 5 5 5 7 7 7 7 7 8 7 7 7 6 5 4 4 4 4 4 4 4 7 7 7 4 3 3 3 3 3 2 2 3 3 3 3 3
6 6 5 5 4 4 4 5 5 6 7 7 8 8 8 8 8 8 7 5 5 4 4 4 5 4 4 7 8 7 3 3 3 3 3 4 3 5 6 4 3 2 2
6 6 5 4 3 3 3 5 6 7 8 8 8 8 8 9 9 8 6 4 4 5 5 4 4 5 4 8 9 9 3 3 2 2 3 6 6 7 7 5 4 3 1
7 6 5 4 4 3 3 5 5 7 7 5 6 7 7 7 7 6 5 5 5 5 4 4 4 5 6 8 11 11 4 4 3 3 2 3 8 8 8 6 4 5 4
7 5 5 4 3 2 2 3 4 4 4 5 6 6 6 6 6 7 6 6 6 5 5 4 4 3 5 8 9 12 11 9 5 4 3 4 9 9 9 6 6 7 5
7 5 4 4 3 2 1 3 3 3 4 5 5 5 6 5 6 7 7 6 5 5 5 5 5 4 4 6 12 13 13 13 6 5 8 9 10 9 6 8 9 6 3
5 4 4 4 3 3 1 1 2 3 4 5 5 5 6 5 5 5 6 6 6 6 5 6 5 4 4 4 5 5 6 9 7 5 8 10 10 7 6 6 4 3 4
4 3 3 3 3 2 2 1 1 3 4 4 4 4 5 5 5 5 6 7 6 7 7 6 5 5 6 8 12 7 5 4 5 4 2 2 2 3 3 3 3 3 3
4 3 3 3 3 2 2 1 0 2 3 3 3 3 4 4 4 4 4 8 8 11 13 11 9 7 10 11 13 15 15 14 13 7 4 5 5 6 5 5 5 4 5
Wind_Direction
243 238 216 195 186 185 182 184 182 182 176 172 173 173 181 178 178 181 178 173 172 173 171 169 172 171 177 190 190 182 204 225 196 251 306 308 298 299 295 283 259 46 91
245 234 227 207 196 192 189 187 187 182 181 185 180 177 169 169 171 167 167 167 163 165 167 166 172 173 175 187 189 182 191 219 181 173 235 309 329 354 7 17 60 66 70
228 224 217 215 202 198 194 192 189 185 184 177 156 136 120 115 148 175 175 172 161 155 151 159 160 160 163 181 189 185 192 217 224 192 189 213 245 298 353 24 41 50 59
226 219 212 211 207 207 200 192 187 184 182 173 172 172 177 183 187 178 174 165 159 156 153 153 156 161 167 182 196 182 197 198 224 234 223 219 198 210 262 358 39 49 49
219 216 213 211 209 201 194 193 183 181 179 177 181 180 182 181 160 148 157 162 157 153 151 151 152 160 170 182 183 184 200 202 210 214 218 232 231 218 217 229 193 68 44
222 218 215 205 203 194 184 179 173 177 176 176 179 183 181 171 163 165 166 164 152 141 142 139 139 144 151 163 181 195 211 217 220 224 216 211 216 215 211 223 199 175 116
214 210 202 196 194 188 184 177 174 177 177 177 182 186 181 174 174 171 169 164 160 156 155 136 135 135 138 141 147 164 203 225 223 231 233 234 234 223 212 217 209 177 151
214 208 201 197 194 189 184 177 176 176 174 173 177 175 168 165 165 163 157 160 154 146 142 133 129 127 121 113 111 122 148 125 187 235 216 213 264 268 234 213 193 199 175
221 208 198 197 195 190 187 180 174 172 172 169 158 153 152 152 149 143 137 138 138 137 136 131 125 116 106 103 103 110 97 116 113 136 116 133 52 6 330 281 219 207 210
223 199 192 192 193 189 179 167 169 174 169 161 159 153 150 145 144 140 141 141 138 132 132 127 122 114 108 108 113 113 108 113 104 111 107 94 67 43 23 10 282 238 211
222 228 217 197 182 170 168 170 170 163 162 158 148 142 140 134 132 132 138 138 131 132 136 137 130 124 116 114 122 131 136 132 111 91 111 105 82 70 30 36 74 240 176
260 232 217 182 172 178 179 179 176 171 167 157 147 143 137 134 134 136 138 134 131 131 134 133 128 125 122 120 132 144 140 141 142 126 116 111 96 82 50 65 87 115 123
301 292 247 211 204 196 189 186 182 175 162 153 148 144 147 147 150 148 141 135 133 129 128 128 132 132 132 129 127 131 131 130 133 135 134 126 120 103 61 68 80 74 79
271 259 250 242 228 211 198 191 189 175 163 156 157 159 163 161 157 150 143 142 140 137 135 132 135 135 133 132 130 125 120 112 102 99 109 114 134 148 139 108 101 108 102
275 257 248 243 233 222 214 201 193 180 167 162 169 172 162 154 149 148 146 141 140 143 141 136 135 133 135 149 148 140 136 130 114 95 94 110 137 148 149 143 146 134 123
284 272 260 250 237 223 216 205 198 188 172 171 176 165 156 155 156 154 149 146 146 145 144 149 150 155 165 176 173 157 145 145 146 139 117 98 86 105 102 109 120 141 144
297 286 271 255 244 233 216 207 200 182 175 175 172 165 162 164 163 157 153 157 157 153 155 160 159 164 181 187 183 174 154 158 165 163 158 143 116 89 73 78 69 68 103
309 301 287 272 258 238 220 204 183 175 177 176 173 169 166 166 160 159 165 164 158 162 166 170 168 169 193 197 190 179 152 158 171 174 174 165 154 152 136 109 81 56 48
301 291 286 276 270 247 214 183 178 176 179 184 182 177 171 167 167 173 175 168 162 167 170 170 171 176 198 203 196 173 146 162 183 189 185 179 184 187 164 140 126 92 45
307 303 301 295 285 265 203 177 184 184 195 194 187 177 172 173 178 179 172 164 164 171 169 176 182 185 199 209 204 184 161 173 185 192 202 201 198 199 180 160 157 158 167
306 309 309 301 288 274 198 190 192 204 203 180 169 171 174 175 172 166 162 160 162 164 174 184 192 195 205 215 212 200 177 184 187 194 204 222 214 210 200 184 179 194 176
311 313 315 310 310 292 195 198 213 206 166 159 166 172 172 169 164 161 163 163 165 173 184 192 202 210 212 216 220 217 209 199 191 200 202 217 221 217 213 200 200 203 176
310 311 308 312 319 318 226 212 226 172 156 157 168 169 166 166 163 165 167 168 175 185 194 199 210 214 210 220 224 225 222 214 200 202 208 214 221 219 218 217 215 205 169
307 308 309 311 316 322 320 240 204 165 156 165 169 166 168 169 168 172 174 181 189 196 200 206 212 212 209 213 220 223 226 222 212 205 217 218 221 214 210 222 224 191 183
307 305 300 300 306 321 332 322 184 160 162 168 171 172 175 174 180 187 193 195 203 200 201 207 204 204 217 220 214 205 208 198 196 174 175 183 191 199 198 205 210 203 204
310 316 313 307 310 324 340 353 52 163 167 176 180 181 180 180 184 190 206 217 215 223 225 221 214 221 228 230 224 222 222 219 212 198 195 204 209 213 214 216 217 213 213